Flag for U.S.A. Weather past 2 weeks in Sterling Heights, Michigan, U.S.A.

Now
61 °F

Clear.


Feels Like: 61 °F
Forecast: 60 / 77 °F
Wind: 5 mph from Northwest

Location: Selfridge Air National Guard Base

Current Time: Aug 5, 2015 at 4:35:08 AM

Latest Report: Aug 5, 2015 at 3:58 AM


Visibility: 10 mi

Pressure: 29.97 "Hg

Humidity: 85%

Dew point: 57 °F

Location of Sterling HeightsLocation

Historic Weather in Sterling Heights — Graph

°F

Sterling Heights temperature yesterday

Maximum temperature yesterday: 79 °F (at 12:55 PM)
Minimum temperature yesterday: 61 °F (at 6:58 AM)
Average temperature yesterday: 71 °F

Past Weeks' High & Low Weather Summary

 TemperatureHumidityPressure
High92 °F (Aug 2, 4:55 PM)100% (Jul 25, 11:03 PM)30.07 "Hg (Jul 25, 11:03 PM)
Low59 °F (Jul 22, 3:58 AM)31% (Jul 31, 5:55 PM)29.65 "Hg (Aug 2, 6:55 PM)
Average74 °F65%29.91 "Hg
* Reported Jul 21 2:58 AM — Aug 5 2:58 AM, Sterling Heights, Weather by CustomWeather, © 2015

Note: Actual official high and low records may vary slightly from our data, if they occured in-between our weather recording intervals... More about our weather records

Advertising

Sterling Heights weather history for previous 24 hours

 ConditionsComfort  
Time TempWeatherWind HumidityBarometerVisibility
2:58 AM
Wed, Aug 5
62 °FClear.6 mph93%29.97 "Hg10 mi
1:58 AM62 °FClear.5 mph92%29.97 "Hg10 mi
12:58 AM65 °FClear.5 mph76%29.97 "Hg10 mi
11:58 PM
Tue, Aug 4
65 °FPassing clouds.3 mph87%29.97 "Hg10 mi
10:58 PM67 °FPassing clouds.3 mph85%29.96 "Hg10 mi
9:58 PM72 °FClear.6 mph52%29.93 "Hg10 mi
8:58 PM74 °FSunny.6 mph50%29.91 "Hg10 mi
7:55 PM77 °FPassing clouds.7 mph49%29.90 "Hg12 mi
6:55 PM78 °FPassing clouds.10 mph48%29.91 "Hg12 mi
5:55 PM77 °FBroken clouds.9 mph50%29.92 "Hg12 mi
4:55 PM78 °FScattered clouds.12 mph46%29.90 "Hg12 mi
3:55 PM78 °FScattered clouds.13 mph46%29.91 "Hg12 mi
2:55 PM77 °FBroken clouds.12 mph47%29.91 "Hg12 mi
1:55 PM78 °FScattered clouds.13 mph44%29.91 "Hg12 mi
12:55 PM79 °FScattered clouds.12 mph43%29.91 "Hg12 mi
11:55 AM78 °FScattered clouds.17 mph46%29.92 "Hg12 mi
10:55 AM77 °FPassing clouds.10 mph50%29.92 "Hg12 mi
9:55 AM75 °FPassing clouds.5 mph54%29.91 "Hg12 mi
8:55 AM71 °FPassing clouds.6 mph59%29.91 "Hg12 mi
7:55 AM65 °FPassing clouds.6 mph68%29.90 "Hg12 mi
6:58 AM61 °FClear.5 mph77%29.88 "Hg10 mi
5:58 AM62 °FClear.5 mph75%29.87 "Hg10 mi
4:58 AM62 °FPassing clouds.6 mph77%29.86 "Hg10 mi
Weather by CustomWeather, © 2015

See weather overviewHow to use our weather pages